KP4DJT Weather Reports


time (UTC)temp
C
wind
direction
speed
KPH
gust
KPH
rain 1hr
cm
rain 24hr
cm
rain mn
cm
humidity
%
barometer
mb
20260507060237 10 0.0 0.0 0.00 0.00 0.00 65 1019.5
20260507055217 10 352 0.0 0.0 0.00 0.00 0.00 64 1019.5
20260507054252 11 0.0 0.0 0.00 0.00 0.00 62 1019.4
20260507053252 11 313 1.6 3.2 0.00 0.00 0.00 60 1019.4
20260507052232 11 17 0.0 0.0 0.00 0.00 0.00 58 1019.4
20260507051232 12 77 0.0 1.6 0.00 0.00 0.00 57 1019.0
20260507050232 12 69 1.6 3.2 0.00 0.00 0.00 57 1019.2
20260507045218 12 78 3.2 3.2 0.00 0.00 0.00 56 1019.2
20260507044218 12 84 1.6 3.2 0.00 0.00 0.00 55 1019.0
20260507043218 12 63 4.8 8.0 0.00 0.00 0.00 54 1018.8
20260507042218 12 33 3.2 8.0 0.00 0.00 0.00 54 1018.5
20260507041216 13 81 8.0 9.7 0.00 0.00 0.00 53 1018.2
20260507040217 13 85 6.4 9.7 0.00 0.00 0.00 53 1017.9
20260507035219 12 85 8.0 11.3 0.00 0.00 0.00 55 1018.0
20260507034219 12 86 3.2 4.8 0.00 0.00 0.00 55 1018.3
20260507033219 13 59 1.6 3.2 0.00 0.00 0.00 55 1018.2
20260507032219 13 19 0.0 0.0 0.00 0.00 0.00 54 1018.2
20260507031219 13 76 1.6 4.8 0.00 0.00 0.00 53 1018.0
20260507030217 13 74 4.8 4.8 0.00 0.00 0.00 53 1017.9
20260507025217 13 74 4.8 8.0 0.00 0.00 0.00 52 1017.7
20260507024237 14 60 3.2 6.4 0.00 0.00 0.00 51 1017.6
20260507023217 14 67 3.2 4.8 0.00 0.00 0.00 50 1017.5
20260507022240 15 52 3.2 6.4 0.00 0.00 0.00 50 1017.4
20260507021218 15 65 4.8 8.0 0.00 0.00 0.00 49 1017.2
20260507020217 15 46 4.8 8.0 0.00 0.00 0.00 48 1017.1
20260507015238 15 60 8.0 14.5 0.00 0.00 0.00 48 1016.9
20260507014217 15 64 6.4 9.7 0.00 0.00 0.00 47 1016.8
20260507013218 16 57 6.4 9.7 0.00 0.00 0.00 46 1016.6
20260507012218 16 55 8.0 14.5 0.00 0.00 0.00 46 1016.6
20260507011218 16 55 9.7 14.5 0.00 0.00 0.00 45 1016.5
20260507010238 16 47 8.0 11.3 0.00 0.00 0.00 45 1016.5
20260507005218 16 19 6.4 11.3 0.00 0.00 0.00 45 1016.3
20260507004218 16 43 9.7 12.9 0.00 0.00 0.00 45 1016.4
20260507003239 16 68 9.7 14.5 0.00 0.00 0.00 45 1016.3
20260507002219 16 65 9.7 12.9 0.00 0.00 0.00 46 1016.1
20260507001239 16 59 6.4 9.7 0.00 0.00 0.00 46 1016.1
20260507000219 16 18 6.4 9.7 0.00 0.00 0.00 46 1016.0
20260506235219 16 42 4.8 8.0 0.00 0.00 0.00 45 1016.0
20260506234216 17 74 8.0 11.3 0.00 0.00 0.00 45 1015.9
20260506233219 17 74 6.4 9.7 0.00 0.00 0.00 45 1015.7
20260506232220 17 72 11.3 17.7 0.00 0.00 0.00 45 1015.5
20260506231219 17 39 6.4 12.9 0.00 0.00 0.00 45 1015.6
20260506230220 17 64 8.0 14.5 0.00 0.00 0.00 45 1015.5
20260506225237 17 14 1.6 4.8 0.00 0.00 0.00 45 1015.4
20260506224217 17 81 12.9 19.3 0.00 0.00 0.00 45 1015.3
20260506223220 17 60 11.3 14.5 0.00 0.00 0.00 45 1015.1
20260506222220 17 97 9.7 12.9 0.00 0.00 0.00 46 1014.9
20260506221217 17 66 8.0 9.7 0.00 0.00 0.00 46 1014.9
20260506220217 16 50 6.4 11.3 0.00 0.00 0.00 45 1015.0
20260506215238 16 76 12.9 16.1 0.00 0.00 0.00 46 1015.1
20260506214238 16 79 9.7 12.9 0.00 0.00 0.00 46 1015.0
20260506213221 16 70 8.0 14.5 0.00 0.00 0.00 47 1015.2
20260506212218 16 26 9.7 17.7 0.00 0.00 0.00 48 1015.3
20260506211238 16 58 8.0 12.9 0.00 0.00 0.00 49 1015.4
20260506210218 16 90 12.9 17.7 0.00 0.00 0.00 50 1015.5
20260506205218 16 70 9.7 14.5 0.00 0.00 0.00 51 1015.6
20260506204218 16 60 9.7 16.1 0.00 0.00 0.00 50 1015.7
20260506203239 15 45 8.0 14.5 0.00 0.00 0.00 52 1015.8
20260506202219 15 48 11.3 14.5 0.00 0.00 0.00 52 1016.0
20260506201219 15 46 8.0 12.9 0.00 0.00 0.00 53 1016.0
20260506200219 15 44 11.3 17.7 0.00 0.00 0.00 51 1016.0
20260506195216 15 24 12.9 19.3 0.00 0.00 0.00 52 1015.9
20260506194219 15 23 8.0 14.5 0.00 0.00 0.00 53 1016.1
20260506193220 15 84 9.7 12.9 0.00 0.00 0.00 53 1016.2
20260506192220 15 74 11.3 17.7 0.00 0.00 0.00 54 1016.4
20260506191217 15 66 6.4 14.5 0.00 0.00 0.00 54 1016.5
20260506190217 15 54 6.4 11.3 0.00 0.00 0.00 54 1016.6
20260506185220 15 78 8.0 14.5 0.00 0.00 0.00 53 1016.5
20260506184220 14 68 8.0 16.1 0.00 0.00 0.00 54 1016.5
20260506183220 14 48 4.8 9.7 0.00 0.00 0.00 54 1016.7
20260506182217 14 97 12.9 20.9 0.00 0.00 0.00 53 1016.8
20260506181217 15 81 12.9 16.1 0.00 0.00 0.00 53 1016.8
20260506180238 14 56 8.0 14.5 0.00 0.00 0.00 53 1016.9
20260506175241 14 76 11.3 16.1 0.00 0.00 0.00 53 1017.0
20260506174218 14 84 11.3 17.7 0.00 0.00 0.00 53 1017.1
20260506173218 14 73 9.7 12.9 0.00 0.00 0.00 54 1017.3
20260506172218 14 94 9.7 17.7 0.00 0.00 0.00 53 1017.1
20260506171218 13 94 11.3 16.1 0.00 0.00 0.00 54 1017.1
20260506170218 13 98 14.5 22.5 0.00 0.00 0.00 53 1017.1
20260506165219 13 107 12.9 16.1 0.00 0.00 0.00 54 1017.2
20260506164239 13 103 14.5 20.9 0.00 0.00 0.00 54 1017.4
20260506163219 13 85 12.9 17.7 0.00 0.00 0.00 54 1017.4
20260506162239 12 87 16.1 24.1 0.00 0.00 0.00 56 1017.3
20260506161219 12 98 16.1 22.5 0.00 0.00 0.00 55 1017.4
20260506160216 12 86 14.5 22.5 0.00 0.00 0.00 57 1017.3
20260506155219 12 99 19.3 27.4 0.00 0.00 0.00 59 1017.2
20260506154220 11 79 14.5 20.9 0.00 0.00 0.00 61 1017.2
20260506153220 11 66 14.5 17.7 0.00 0.00 0.00 63 1017.1
20260506152217 11 78 9.7 12.9 0.00 0.00 0.00 63 1017.2
20260506151217 11 67 16.1 22.5 0.00 0.00 0.00 65 1017.3
20260506150220 10 82 16.1 20.9 0.00 0.00 0.00 68 1017.2
20260506145220 10 67 12.9 16.1 0.00 0.00 0.00 71 1017.0
20260506144217 10 53 9.7 12.9 0.00 0.00 0.00 73 1016.8
20260506143217 10 66 11.3 12.9 0.00 0.00 0.00 74 1016.6
20260506142218 10 62 6.4 9.7 0.00 0.00 0.00 74 1016.7
20260506141217 10 65 9.7 12.9 0.00 0.00 0.00 74 1016.7
20260506140218 10 73 11.3 16.1 0.00 0.00 0.00 75 1016.7
20260506135224 9 61 9.7 14.5 0.00 0.00 0.00 76 1016.9
20260506134238 9 51 11.3 12.9 0.00 0.00 0.00 77 1016.8
20260506133218 9 49 9.7 14.5 0.00 0.00 0.00 77 1016.9
20260506132238 9 40 8.0 16.1 0.00 0.00 0.00 78 1017.0
20260506131218 9 31 8.0 11.3 0.00 0.00 0.00 78 1016.9
20260506130218 9 56 9.7 14.5 0.00 0.00 0.00 78 1016.7
20260506125218 9 66 8.0 12.9 0.00 0.00 0.00 78 1016.7
20260506124218 9 63 9.7 16.1 0.00 0.00 0.00 79 1016.7
20260506123219 8 27 6.4 9.7 0.00 0.00 0.00 80 1016.3
20260506122219 8 30 9.7 14.5 0.00 0.00 0.00 80 1016.2
20260506121219 8 52 9.7 11.3 0.00 0.00 0.00 80 1015.8
20260506120219 8 54 8.0 11.3 0.00 0.00 0.00 80 1015.7
20260506115219 8 59 9.7 12.9 0.00 0.00 0.00 80 1015.7
20260506114239 8 53 6.4 11.3 0.00 0.00 0.00 80 1015.7
20260506113220 8 56 1.6 8.0 0.00 0.00 0.00 79 1015.5
20260506112220 8 50 4.8 8.0 0.00 0.00 0.00 78 1015.4
20260506111220 8 46 6.4 11.3 0.00 0.00 0.00 78 1015.2
20260506110220 8 42 8.0 12.9 0.00 0.00 0.00 78 1015.2
20260506105220 9 54 6.4 8.0 0.00 0.00 0.00 77 1015.2
20260506104220 9 39 6.4 11.3 0.00 0.00 0.00 77 1015.7
20260506103220 9 356 4.8 6.4 0.00 0.00 0.00 76 1016.0
20260506102220 9 64 8.0 14.5 0.00 0.00 0.00 76 1015.6
20260506101241 9 43 6.4 11.3 0.00 0.00 0.00 76 1015.7
20260506100221 9 51 6.4 8.0 0.00 0.00 0.00 76 1015.8
20260506095231 9 43 3.2 4.8 0.00 0.00 0.00 76 1015.5
20260506094241 9 9 6.4 9.7 0.00 0.00 0.00 75 1015.2
20260506093221 9 46 6.4 8.0 0.00 0.00 0.00 74 1014.6
20260506092221 9 72 4.8 4.8 0.00 0.00 0.00 74 1014.6
20260506091221 9 62 8.0 12.9 0.00 0.00 0.00 73 1014.6
20260506090221 9 48 6.4 12.9 0.00 0.00 0.00 73 1014.4
20260506085242 9 2 3.2 6.4 0.00 0.00 0.00 72 1014.4
20260506084221 9 59 6.4 11.3 0.00 0.00 0.00 72 1014.4
20260506083242 9 54 8.0 12.9 0.00 0.00 0.00 72 1014.1
20260506082222 9 35 3.2 6.4 0.00 0.00 0.00 71 1013.7
20260506081222 9 19 9.7 14.5 0.00 0.00 0.00 71 1013.5
20260506080222 9 30 8.0 14.5 0.00 0.00 0.00 70 1013.4
20260506073222 9 65 9.7 12.9 0.00 0.00 0.00 70 1013.2
20260506072216 9 68 6.4 9.7 0.00 0.00 0.00 71 1012.9
20260506071217 9 61 6.4 9.7 0.00 0.00 0.00 70 1012.9
20260506070217 9 56 8.0 9.7 0.00 0.00 0.00 70 1013.0
20260506062217 9 65 11.3 16.1 0.00 0.00 0.00 69 1013.2
20260506061217 9 56 6.4 8.0 0.00 0.00 0.00 69 1013.1